GW2622 Weather Reports


time (UTC)temp
F
wind
direction
speed
knots
gust
knots
rain 1hr
in
rain 24hr
in
rain mn
in
humidity
%
barometer
mb
20260503200118 73 316 1.7 9.6 0.00 0.00 0.00 32 1008.6
20260503195615 73 306 3.5 14.8 0.00 0.00 0.00 31 1008.5
20260503195111 73 283 6.1 8.7 0.00 0.00 0.00 31 1008.7
20260503194609 73 319 6.1 12.2 0.00 0.00 0.00 31 1008.8
20260503194103 72 324 0.0 6.1 0.00 0.00 0.00 32 1008.3
20260503193600 72 278 2.6 8.7 0.00 0.00 0.00 31 1008.5
20260503193056 72 299 6.1 12.2 0.00 0.00 0.00 30 1008.5
20260503192553 73 287 5.2 13.0 0.00 0.00 0.00 31 1008.5
20260503192049 73 303 7.8 11.3 0.00 0.00 0.00 30 1008.7
20260503191546 73 293 4.3 11.3 0.00 0.00 0.00 30 1008.7
20260503191042 72 295 7.8 13.9 0.00 0.00 0.00 31 1008.8
20260503190539 72 282 7.8 8.7 0.00 0.00 0.00 32 1008.5
20260503190036 73 314 4.3 9.6 0.00 0.00 0.00 34 1008.6
20260503185532 73 270 4.3 11.3 0.00 0.00 0.00 32 1008.5
20260503185027 73 314 7.8 11.3 0.00 0.00 0.00 35 1008.4
20260503184523 72 263 3.5 11.3 0.00 0.00 0.00 37 1008.3
20260503184019 72 254 8.7 12.2 0.00 0.00 0.00 37 1008.8
20260503183516 71 242 5.2 7.8 0.00 0.00 0.00 38 1008.7
20260503183013 71 266 5.2 7.8 0.00 0.00 0.00 40 1008.6
20260503182512 71 298 2.6 9.6 0.00 0.00 0.00 41 1008.7
20260503182009 70 266 1.7 11.3 0.00 0.00 0.00 45 1008.8
20260503181506 69 233 6.1 7.8 0.00 0.00 0.00 43 1008.9
20260503181002 69 238 7.0 12.2 0.00 0.00 0.00 43 1009.0
20260503180500 69 292 4.3 7.0 0.00 0.00 0.00 44 1008.7
20260503175956 68 291 5.2 9.6 0.00 0.00 0.00 45 1009.2
20260503175454 68 318 6.1 8.7 0.00 0.00 0.00 46 1008.8
20260503174951 68 222 6.1 12.2 0.00 0.00 0.00 47 1009.0
20260503174449 67 244 5.2 12.2 0.00 0.00 0.00 46 1009.0
20260503173944 66 228 9.6 12.2 0.00 0.00 0.00 48 1009.0
20260503173440 66 171 6.1 9.6 0.00 0.00 0.00 48 1009.0
20260503172937 66 236 7.8 11.3 0.00 0.00 0.00 49 1009.2
20260503172435 64 227 4.3 7.8 0.00 0.00 0.00 52 1009.5
20260503171931 65 208 4.3 13.0 0.00 0.00 0.00 51 1009.6
20260503171427 64 267 2.6 7.0 0.00 0.00 0.00 53 1009.3
20260503170925 65 228 7.0 9.6 0.00 0.00 0.00 50 1009.1
20260503170421 66 199 5.2 7.0 0.00 0.00 0.00 50 1009.5
20260503150814 62 268 3.5 9.6 0.00 0.00 0.00 50 1009.4
20260503150309 62 251 3.5 5.2 0.00 0.00 0.00 50 1009.4
20260503140234 59 226 5.2 9.6 0.00 0.00 0.00 53 1009.5
20260503131204 55 227 4.3 9.6 0.00 0.00 0.00 57 1009.7
20260503130701 55 234 7.0 8.7 0.00 0.00 0.00 56 1009.7
20260503130158 55 222 7.0 12.2 0.00 0.00 0.00 55 1009.8
20260503120124 55 245 4.3 8.7 0.00 0.00 0.00 52 1010.5
20260503110551 53 216 5.2 8.7 0.00 0.00 0.00 55 1009.8
20260503090438 51 190 4.3 7.8 0.00 0.00 0.00 56 1011.3
20260503081359 51 226 4.3 7.8 0.00 0.00 0.00 55 1012.3
20260503080855 51 225 7.0 9.6 0.00 0.00 0.00 55 1012.1
20260503080352 51 204 6.1 8.7 0.00 0.00 0.00 55 1012.2
20260503072829 51 195 5.2 8.7 0.00 0.00 0.00 54 1012.6
20260503072326 51 218 6.1 7.8 0.00 0.00 0.00 54 1012.9
20260503071822 51 219 6.1 8.7 0.00 0.00 0.00 54 1012.6
20260503071320 51 196 6.1 9.6 0.00 0.00 0.00 54 1012.5
20260503070816 51 216 7.0 12.2 0.00 0.00 0.00 53 1012.4
20260503070314 51 200 5.2 9.6 0.00 0.00 0.00 55 1012.3
20260503060233 51 217 5.2 7.8 0.00 0.00 0.00 54 1013.6
20260503054720 51 218 4.3 7.8 0.00 0.00 0.00 54 1013.6
20260503054217 51 213 5.2 7.0 0.00 0.00 0.00 54 1013.9
20260503053715 51 234 4.3 6.1 0.00 0.00 0.00 55 1014.0
20260503053213 50 222 5.2 6.1 0.00 0.00 0.00 56 1014.0
20260503052709 50 203 3.5 6.1 0.00 0.00 0.00 56 1014.2
20260503052206 49 214 2.6 5.2 0.00 0.00 0.00 58 1014.2
20260503051701 49 196 1.7 4.3 0.00 0.00 0.00 59 1014.2
20260503051159 49 220 3.5 4.3 0.00 0.00 0.00 58 1014.1
20260503050655 50 206 2.6 4.3 0.00 0.00 0.00 58 1014.2
20260503050152 50 212 2.6 2.6 0.00 0.00 0.00 58 1014.4
20260503045649 50 204 2.6 4.3 0.00 0.00 0.00 57 1014.4
20260503045147 50 212 2.6 2.6 0.00 0.00 0.00 57 1014.3
20260503044643 50 197 2.6 4.3 0.00 0.00 0.00 56 1014.4
20260503044141 50 198 2.6 4.3 0.00 0.00 0.00 56 1014.6
20260503043637 50 202 2.6 2.6 0.00 0.00 0.00 56 1014.5
20260503043134 50 220 2.6 4.3 0.00 0.00 0.00 57 1014.3
20260503042631 50 215 1.7 2.6 0.00 0.00 0.00 58 1014.5
20260503042127 50 207 2.6 2.6 0.00 0.00 0.00 58 1014.6
20260503041623 50 214 2.6 2.6 0.00 0.00 0.00 56 1014.7
20260503041121 50 210 2.6 2.6 0.00 0.00 0.00 56 1014.8
20260503040618 50 219 2.6 2.6 0.00 0.00 0.00 56 1014.9
20260503040116 50 215 1.7 2.6 0.00 0.00 0.00 55 1014.8
20260503035612 50 212 1.7 2.6 0.00 0.00 0.00 55 1015.1
20260503035110 51 213 1.7 2.6 0.00 0.00 0.00 55 1015.1
20260503034607 51 223 1.7 1.7 0.00 0.00 0.00 54 1015.4
20260503034104 51 217 0.9 1.7 0.00 0.00 0.00 53 1015.1
20260503033601 51 217 1.7 1.7 0.00 0.00 0.00 54 1015.1
20260503033059 51 209 2.6 2.6 0.00 0.00 0.00 53 1015.2
20260503032557 51 210 1.7 1.7 0.00 0.00 0.00 53 1015.4
20260503032055 51 218 1.7 2.6 0.00 0.00 0.00 54 1015.3
20260503031552 51 220 2.6 4.3 0.00 0.00 0.00 53 1015.2
20260503031050 52 220 1.7 1.7 0.00 0.00 0.00 52 1015.4
20260503030545 52 216 2.6 2.6 0.00 0.00 0.00 53 1015.5
20260503030043 52 223 1.7 2.6 0.00 0.00 0.00 52 1015.6
20260503025539 52 211 1.7 2.6 0.00 0.00 0.00 52 1015.6
20260503025037 52 218 0.9 2.6 0.00 0.00 0.00 52 1015.6
20260503024533 53 219 1.7 2.6 0.00 0.00 0.00 50 1015.7
20260503024030 53 209 1.7 2.6 0.00 0.00 0.00 50 1015.6
20260503023521 53 213 1.7 1.7 0.00 0.00 0.00 50 1015.6
20260503023019 53 216 2.6 2.6 0.00 0.00 0.00 49 1015.7
20260503022515 53 220 0.9 2.6 0.00 0.00 0.00 49 1015.8
20260503022009 53 211 1.7 2.6 0.00 0.00 0.00 49 1015.7
20260503021506 53 224 1.7 1.7 0.00 0.00 0.00 49 1015.7
20260503021003 53 228 1.7 1.7 0.00 0.00 0.00 48 1015.7
20260503020501 54 234 0.9 1.7 0.00 0.00 0.00 48 1015.6
20260503015957 54 233 0.9 1.7 0.00 0.00 0.00 48 1015.7
20260503015454 54 236 1.7 1.7 0.00 0.00 0.00 48 1015.7
20260503014950 54 242 0.9 1.7 0.00 0.00 0.00 47 1015.7
20260503014447 55 242 0.9 1.7 0.00 0.00 0.00 46 1015.9
20260503013945 55 242 0.9 1.7 0.00 0.00 0.00 46 1015.7
20260503013442 55 239 0.9 1.7 0.00 0.00 0.00 45 1015.8
20260503012939 56 230 0.9 1.7 0.00 0.00 0.00 45 1015.6
20260503012437 56 230 1.7 2.6 0.00 0.00 0.00 44 1015.7
20260503011933 56 242 0.9 0.9 0.00 0.00 0.00 44 1015.7
20260503011430 56 241 0.9 0.9 0.00 0.00 0.00 45 1015.7
20260503010927 57 226 2.6 2.6 0.00 0.00 0.00 42 1015.7
20260503010424 58 234 1.7 1.7 0.00 0.00 0.00 41 1015.6
20260503005921 58 238 0.9 2.6 0.00 0.00 0.00 40 1015.7
20260503005418 59 240 1.7 2.6 0.00 0.00 0.00 41 1015.6
20260503004915 59 227 2.6 2.6 0.00 0.00 0.00 39 1015.6
20260503004412 59 228 1.7 2.6 0.00 0.00 0.00 39 1015.8
20260503003909 60 227 2.6 2.6 0.00 0.00 0.00 39 1015.7
20260503003405 61 238 1.7 2.6 0.00 0.00 0.00 37 1015.6
20260503002857 61 225 1.7 2.6 0.00 0.00 0.00 37 1015.7
20260503002355 61 256 0.9 2.6 0.00 0.00 0.00 37 1015.9
20260503001851 61 252 0.9 4.3 0.00 0.00 0.00 36 1015.9
20260503001347 62 211 2.6 5.2 0.00 0.00 0.00 36 1016.0
20260503000845 62 228 3.5 4.3 0.00 0.00 0.00 35 1015.9
20260503000342 62 222 2.6 6.1 0.00 0.00 0.00 35 1015.9
20260502235838 62 277 2.6 6.1 0.00 0.00 0.00 33 1015.9
20260502235336 62 254 3.5 7.8 0.00 0.00 0.00 34 1016.2
20260502234833 62 229 4.3 7.0 0.00 0.00 0.00 36 1016.1
20260502234329 63 219 1.7 2.6 0.00 0.00 0.00 33 1016.2
20260502233826 63 227 4.3 5.2 0.00 0.00 0.00 32 1016.3
20260502233322 63 268 1.7 6.1 0.00 0.00 0.00 32 1016.2
20260502232820 63 264 5.2 8.7 0.00 0.00 0.00 32 1016.2
20260502232316 63 296 2.6 7.0 0.00 0.00 0.00 31 1016.4
20260502231812 63 250 3.5 6.1 0.00 0.00 0.00 32 1016.3
20260502231311 63 251 2.6 7.0 0.00 0.00 0.00 32 1016.5
20260502230808 64 246 4.3 7.8 0.00 0.00 0.00 31 1016.5
20260502230306 64 222 3.5 6.1 0.00 0.00 0.00 31 1016.5
20260502225803 65 274 2.6 4.3 0.00 0.00 0.00 29 1016.4
20260502225259 64 277 0.9 1.7 0.00 0.00 0.00 32 1016.5
20260502224756 63 276 0.9 5.2 0.00 0.00 0.00 33 1016.6
20260502224252 64 275 1.7 2.6 0.00 0.00 0.00 34 1016.5
20260502223750 63 220 2.6 7.0 0.00 0.00 0.00 31 1016.8
20260502223248 64 219 4.3 6.1 0.00 0.00 0.00 30 1016.7
20260502222745 64 305 3.5 6.1 0.00 0.00 0.00 32 1016.7
20260502222242 64 305 0.9 5.2 0.00 0.00 0.00 33 1016.7
20260502221738 65 284 2.6 5.2 0.00 0.00 0.00 30 1016.8
20260502221235 64 293 1.7 4.3 0.00 0.00 0.00 33 1016.7
20260502220731 64 315 4.3 5.2 0.00 0.00 0.00 32 1016.9
20260502220227 64 290 3.5 7.8 0.00 0.00 0.00 33 1016.8
20260502215724 64 284 0.9 4.3 0.00 0.00 0.00 32 1016.9
20260502215221 63 261 1.7 6.1 0.00 0.00 0.00 34 1017.1
20260502214719 63 277 2.6 4.3 0.00 0.00 0.00 34 1017.1
20260502214216 62 273 2.6 2.6 0.00 0.00 0.00 33 1017.1
20260502213713 62 282 2.6 6.1 0.00 0.00 0.00 32 1017.2
20260502213210 62 303 0.9 7.8 0.00 0.00 0.00 35 1017.1
20260502212708 62 310 4.3 6.1 0.00 0.00 0.00 33 1017.5
20260502212200 64 270 0.9 1.7 0.00 0.00 0.00 34 1017.6
20260502211656 63 234 2.6 6.1 0.00 0.00 0.00 34 1017.6
20260502211154 62 275 1.7 7.8 0.00 0.00 0.00 34 1017.6
20260502210650 62 302 6.1 7.8 0.00 0.00 0.00 34 1017.7
20260502210148 62 284 0.0 5.2 0.00 0.00 0.00 32 1017.9
20260502205644 62 212 2.6 2.6 0.00 0.00 0.00 34 1017.8
20260502205141 61 321 0.9 6.1 0.00 0.00 0.00 32 1018.0
20260502204638 62 338 2.6 5.2 0.00 0.00 0.00 33 1018.0
20260502204136 61 207 3.5 5.2 0.00 0.00 0.00 34 1018.2
20260502203632 61 327 3.5 6.1 0.00 0.00 0.00 33 1018.3
20260502203131 62 280 0.9 4.3 0.00 0.00 0.00 33 1018.4
20260502202625 61 232 3.5 5.2 0.00 0.00 0.00 36 1018.4
20260502202123 61 274 2.6 7.0 0.00 0.00 0.00 33 1018.5
20260502201620 60 313 1.7 5.2 0.00 0.00 0.00 35 1018.6
20260502201116 59 328 2.6 5.2 0.00 0.00 0.00 36 1018.7
20260502200612 60 348 1.7 5.2 0.00 0.00 0.00 34 1018.6